TIANWANG 1B (TW-1B)
1 40927U 15051C   19229.14615337  .00006857  00000-0  10357-3 0  9992
2 40927  97.1351 274.5158 0009242 152.9099 271.4125 15.55004983219255
TIANWANG 1A (TW-1A)
1 40928U 15051D   19229.10385234  .00001855  00000-0  46882-4 0  9995
2 40928  97.1428 259.0910 0010201 209.5201 215.9125 15.41021379218329
LAPAN A2
1 40931U 15052B   19228.71942469  .00000891  00000-0  34865-4 0  9992
2 40931   6.0025 355.7789 0014690 277.0108  82.8362 14.76614252210001
LQSAT
1 40958U 15057A   19228.79526670 -.00000018  00000-0  48584-5 0  9992
2 40958  97.8950 296.3840 0019294  54.6211 305.6796 14.73085899207506
CHUBUSAT 2
1 41338U 16012B   19229.10968562  .00000228  00000-0  10958-4 0  9998
2 41338  31.0029 127.1567 0013771 331.0001  28.9869 15.00166843191841
CHUBUSAT 3
1 41339U 16012C   19229.07224405  .00000172  00000-0  65595-5 0  9992
2 41339  31.0115 125.4110 0013592 337.0813  22.9214 15.00340886191839
OUFTI-1
1 41458U 16025C   19228.79482216  .00001813  00000-0  95249-4 0  9993
2 41458  98.1022 318.6460 0166944 157.9633 202.8882 15.05918255181469
E-STAR-2
1 41459U 16025D   19229.22415819  .00000388  00000-0  24091-4 0  9991
2 41459  98.1037 318.7277 0168278 157.7947 203.0695 15.05546260181504
AAUSAT 4
1 41460U 16025E   19229.19155851  .00002730  00000-0  13904-3 0  9999
2 41460  98.0982 320.0832 0158218 150.2912 210.7416 15.07481059181636
NUSAT 1
1 41557U 16033B   19229.20797671  .00000703  00000-0  28979-4 0  9996
2 41557  97.4176 316.3636 0015519  88.3866 271.9150 15.27305365179173
BEESAT 4
1 41619U 16040W   19229.16578416  .00000744  00000-0  34355-4 0  9992
2 41619  97.3633 290.2709 0011705 166.1941 193.9619 15.23224472162914
PRATHAM
1 41783U 16059A   19228.75980062  .00000035  00000-0  16044-4 0  9990
2 41783  98.0631 287.0238 0033243 196.0539 163.9613 14.63003989154181
ALSAT 1N
1 41789U 16059G   19229.10809764  .00000029  00000-0  14620-4 0  9996
2 41789  98.0661 289.4892 0028317 184.0657 176.0328 14.64255148154349
NAYIF 1
1 42017U 17008BX  19228.72950593 +.00000802 +00000-0 +34380-4 0  9994
2 42017 097.3995 295.2066 0005236 336.2432 023.8564 15.25635086138929
MAX VALIER SAT
1 42778U 17036P   19229.15770317  .00000490  00000-0  24384-4 0  9997
2 42778  97.3499 285.5012 0012897  23.7286 336.4542 15.22085409119283
